| time (UTC) | temp F | wind direction | speed MPH | gust MPH | rain 1hr in | rain 24hr in | rain mn in | humidity % | barometer mb |
| 20260507171604 | 64 | 360 | 2.0 | 6.0 | 0.00 | 0.00 | 0.00 | 81 | 1016.0 |
| 20260507170058 | 63 | 360 | 5.0 | 7.0 | 0.00 | 0.00 | 0.00 | 82 | 1016.1 |
| 20260507164605 | 63 | 360 | 1.0 | 7.0 | 0.00 | 0.00 | 0.00 | 83 | 1016.2 |
| 20260507163053 | 63 | 360 | 4.0 | 6.0 | 0.00 | 0.00 | 0.00 | 83 | 1016.3 |
| 20260507161606 | 63 | 360 | 4.0 | 6.0 | 0.00 | 0.00 | 0.00 | 84 | 1016.3 |
| 20260507160104 | 62 | 360 | 1.0 | 5.0 | 0.00 | 0.00 | 0.00 | 84 | 1016.3 |
| 20260507154549 | 62 | 360 | 3.0 | 6.0 | 0.00 | 0.00 | 0.00 | 84 | 1016.4 |
| 20260507153048 | 62 | 360 | 2.0 | 6.0 | 0.00 | 0.00 | 0.00 | 85 | 1016.3 |
| 20260507151546 | 62 | 360 | 1.0 | 3.0 | 0.00 | 0.00 | 0.00 | 85 | 1016.3 |
| 20260507150046 | 62 | 360 | 2.0 | 5.0 | 0.00 | 0.00 | 0.00 | 85 | 1016.2 |
| 20260507144556 | 62 | 360 | 0.0 | 0.0 | 0.00 | 0.00 | 0.00 | 86 | 1016.1 |
| 20260507143045 | 61 | 360 | 0.0 | 0.0 | 0.00 | 0.00 | 0.00 | 87 | 1016.0 |
| 20260507141541 | 61 | 360 | 0.0 | 0.0 | 0.00 | 0.00 | 0.00 | 87 | 1015.9 |
| 20260507140041 | 60 | 360 | 0.0 | 0.0 | 0.00 | 0.00 | 0.00 | 88 | 1015.8 |
| 20260507134540 | 60 | 360 | 0.0 | 0.0 | 0.00 | 0.00 | 0.00 | 88 | 1015.7 |
| 20260507133043 | 59 | 360 | 0.0 | 0.0 | 0.00 | 0.00 | 0.00 | 88 | 1015.6 |
| 20260507131537 | 60 | 360 | 0.0 | 0.0 | 0.00 | 0.00 | 0.00 | 88 | 1015.7 |
| 20260507130041 | 60 | 360 | 0.0 | 0.0 | 0.00 | 0.00 | 0.00 | 89 | 1015.5 |
| 20260507124537 | 59 | 360 | 0.0 | 0.0 | 0.00 | 0.00 | 0.00 | 88 | 1015.4 |
| 20260507123041 | 60 | 360 | 0.0 | 0.0 | 0.00 | 0.00 | 0.00 | 88 | 1015.4 |
| 20260507121521 | 60 | 360 | 0.0 | 0.0 | 0.00 | 0.00 | 0.00 | 87 | 1015.4 |
| 20260507120019 | 61 | 360 | 0.0 | 0.0 | 0.00 | 0.00 | 0.00 | 87 | 1015.3 |
| 20260507114519 | 61 | 360 | 0.0 | 0.0 | 0.00 | 0.00 | 0.00 | 87 | 1015.2 |
| 20260507113025 | 61 | 360 | 0.0 | 0.0 | 0.00 | 0.00 | 0.00 | 87 | 1015.2 |
| 20260507111515 | 61 | 360 | 0.0 | 0.0 | 0.00 | 0.00 | 0.00 | 87 | 1015.3 |
| 20260507110014 | 61 | 360 | 0.0 | 0.0 | 0.00 | 0.00 | 0.00 | 88 | 1015.4 |
| 20260507104515 | 61 | 360 | 0.0 | 0.0 | 0.00 | 0.00 | 0.00 | 88 | 1015.4 |
| 20260507103011 | 61 | 360 | 0.0 | 0.0 | 0.00 | 0.00 | 0.00 | 89 | 1015.6 |
| 20260507101515 | 61 | 360 | 0.0 | 0.0 | 0.00 | 0.00 | 0.00 | 89 | 1015.7 |
| 20260507100009 | 60 | 360 | 0.0 | 0.0 | 0.00 | 0.00 | 0.00 | 89 | 1015.8 |
| 20260507094508 | 60 | 360 | 0.0 | 0.0 | 0.00 | 0.00 | 0.00 | 89 | 1015.8 |
| 20260507093009 | 60 | 360 | 0.0 | 0.0 | 0.00 | 0.00 | 0.00 | 88 | 1016.0 |
| 20260507091504 | 60 | 360 | 0.0 | 0.0 | 0.00 | 0.00 | 0.00 | 89 | 1016.0 |
| 20260507090003 | 61 | 360 | 0.0 | 0.0 | 0.00 | 0.00 | 0.00 | 89 | 1016.2 |
| 20260507084501 | 61 | 360 | 0.0 | 0.0 | 0.00 | 0.00 | 0.00 | 89 | 1016.4 |
| 20260507083059 | 61 | 360 | 0.0 | 0.0 | 0.00 | 0.00 | 0.00 | 89 | 1016.5 |
| 20260507081558 | 61 | 360 | 0.0 | 0.0 | 0.00 | 0.00 | 0.00 | 88 | 1016.6 |
| 20260507080026 | 61 | 360 | 0.0 | 0.0 | 0.00 | 0.00 | 0.00 | 88 | 1016.7 |
| 20260507074558 | 61 | 360 | 0.0 | 0.0 | 0.00 | 0.00 | 0.00 | 88 | 1016.7 |
| 20260507073054 | 61 | 360 | 0.0 | 0.0 | 0.00 | 0.00 | 0.00 | 87 | 1016.6 |
| 20260507071552 | 62 | 360 | 0.0 | 0.0 | 0.00 | 0.00 | 0.00 | 87 | 1016.7 |
| 20260507070054 | 62 | 360 | 0.0 | 0.0 | 0.00 | 0.00 | 0.00 | 87 | 1016.8 |
| 20260507064607 | 62 | 360 | 0.0 | 0.0 | 0.00 | 0.01 | 0.00 | 87 | 1016.9 |
| 20260507063054 | 62 | 360 | 0.0 | 0.0 | 0.00 | 0.01 | 0.00 | 87 | 1017.0 |
| 20260507061551 | 62 | 360 | 0.0 | 0.0 | 0.00 | 0.01 | 0.00 | 87 | 1017.0 |
| 20260507060051 | 62 | 360 | 0.0 | 0.0 | 0.00 | 0.01 | 0.00 | 87 | 1017.0 |
| 20260507054602 | 62 | 360 | 0.0 | 0.0 | 0.00 | 0.01 | 0.00 | 87 | 1016.9 |
| 20260507053049 | 62 | 360 | 2.0 | 5.0 | 0.00 | 0.01 | 0.00 | 87 | 1016.9 |
| 20260507051547 | 62 | 360 | 3.0 | 6.0 | 0.00 | 0.01 | 0.00 | 87 | 1016.9 |
| 20260507050046 | 62 | 360 | 2.0 | 6.0 | 0.00 | 0.01 | 0.00 | 87 | 1016.9 |
| 20260507044547 | 62 | 360 | 0.0 | 6.0 | 0.00 | 0.01 | 0.00 | 87 | 1016.9 |
| 20260507043046 | 62 | 360 | 2.0 | 5.0 | 0.00 | 0.01 | 0.00 | 87 | 1016.8 |
| 20260507041553 | 62 | 360 | 1.0 | 6.0 | 0.00 | 0.01 | 0.00 | 86 | 1016.7 |
| 20260507040044 | 62 | 360 | 4.0 | 6.0 | 0.00 | 0.01 | 0.00 | 86 | 1016.7 |
| 20260507034545 | 63 | 360 | 3.0 | 7.0 | 0.00 | 0.02 | 0.00 | 86 | 1016.5 |
| 20260507033045 | 63 | 360 | 5.0 | 8.0 | 0.00 | 0.02 | 0.00 | 85 | 1016.4 |
| 20260507031542 | 63 | 360 | 2.0 | 7.0 | 0.00 | 0.02 | 0.00 | 85 | 1016.3 |
| 20260507030042 | 63 | 360 | 2.0 | 7.0 | 0.00 | 0.02 | 0.00 | 84 | 1016.1 |
| 20260507024541 | 63 | 360 | 4.0 | 8.0 | 0.00 | 0.02 | 0.00 | 84 | 1016.0 |
| 20260507023041 | 63 | 360 | 4.0 | 8.0 | 0.00 | 0.02 | 0.00 | 84 | 1015.9 |
| 20260507021540 | 64 | 360 | 5.0 | 9.0 | 0.00 | 0.02 | 0.00 | 84 | 1015.9 |
| 20260507020039 | 64 | 360 | 3.0 | 9.0 | 0.00 | 0.02 | 0.00 | 84 | 1015.8 |
| 20260507014550 | 64 | 360 | 5.0 | 9.0 | 0.00 | 0.02 | 0.00 | 83 | 1015.7 |
| 20260507013047 | 65 | 360 | 4.0 | 9.0 | 0.00 | 0.02 | 0.00 | 81 | 1015.7 |
| 20260507011541 | 65 | 360 | 4.0 | 11.0 | 0.00 | 0.02 | 0.00 | 81 | 1015.7 |
| 20260507010036 | 65 | 360 | 5.0 | 9.0 | 0.00 | 0.02 | 0.00 | 80 | 1015.7 |
| 20260507004535 | 65 | 360 | 5.0 | 10.0 | 0.00 | 0.02 | 0.00 | 80 | 1015.6 |
| 20260507003037 | 66 | 296 | 5.0 | 10.0 | 0.00 | 0.02 | 0.00 | 78 | 1015.6 |
| 20260507001539 | 66 | 266 | 4.0 | 11.0 | 0.00 | 0.02 | 0.00 | 78 | 1015.5 |
| 20260507000033 | 66 | 301 | 6.0 | 10.0 | 0.00 | 0.02 | 0.00 | 77 | 1015.4 |
| 20260506234533 | 66 | 360 | 5.0 | 9.0 | 0.00 | 0.02 | 0.00 | 77 | 1015.4 |
| 20260506233032 | 66 | 360 | 5.0 | 11.0 | 0.00 | 0.02 | 0.00 | 76 | 1015.4 |
| 20260506231531 | 66 | 360 | 5.0 | 11.0 | 0.00 | 0.02 | 0.00 | 77 | 1015.5 |
| 20260506230031 | 66 | 360 | 6.0 | 12.0 | 0.00 | 0.02 | 0.00 | 76 | 1015.6 |
| 20260506224529 | 66 | 360 | 6.0 | 12.0 | 0.00 | 0.03 | 0.00 | 75 | 1015.7 |
| 20260506223027 | 66 | 360 | 5.0 | 11.0 | 0.00 | 0.03 | 0.00 | 75 | 1015.8 |
| 20260506221524 | 66 | 360 | 5.0 | 12.0 | 0.00 | 0.03 | 0.00 | 75 | 1016.0 |
| 20260506220024 | 66 | 360 | 6.0 | 11.0 | 0.00 | 0.03 | 0.00 | 73 | 1016.1 |
| 20260506214522 | 66 | 360 | 6.0 | 0.0 | 7.25 | 0.00 | 0.00 | 74 | 1016.2 |
| 20260506213022 | 67 | 360 | 5.0 | 11.0 | 0.00 | 0.04 | 0.00 | 72 | 1016.3 |
| 20260506211619 | 66 | 360 | 6.0 | 13.0 | 0.00 | 0.04 | 0.00 | 71 | 1016.4 |
| 20260506210018 | 67 | 360 | 5.0 | 11.0 | 0.00 | 0.04 | 0.00 | 69 | 1016.4 |
| 20260506204518 | 67 | 360 | 6.0 | 0.0 | 7.25 | 0.00 | 0.00 | 71 | 1016.4 |
| 20260506203018 | 66 | 360 | 7.0 | 13.0 | 0.00 | 0.05 | 0.00 | 70 | 1016.4 |
| 20260506201514 | 66 | 360 | 8.0 | 14.0 | 0.00 | 0.05 | 0.00 | 71 | 1016.6 |
| 20260506200014 | 66 | 360 | 4.0 | 12.0 | 0.00 | 0.05 | 0.00 | 71 | 1016.8 |
| 20260506194513 | 66 | 360 | 6.0 | 12.0 | 0.00 | 0.06 | 0.00 | 70 | 1016.9 |
| 20260506193010 | 67 | 360 | 4.0 | 11.0 | 0.00 | 0.06 | 0.00 | 72 | 1017.0 |
| 20260506191508 | 66 | 360 | 6.0 | 13.0 | 0.00 | 0.06 | 0.00 | 70 | 1017.2 |
| 20260506190007 | 66 | 360 | 5.0 | 12.0 | 0.00 | 0.06 | 0.00 | 71 | 1017.2 |
| 20260506184504 | 65 | 360 | 5.0 | 12.0 | 0.00 | 0.07 | 0.00 | 70 | 1017.3 |
| 20260506183005 | 65 | 360 | 5.0 | 9.0 | 0.00 | 0.07 | 0.00 | 71 | 1017.4 |
| 20260506181600 | 65 | 360 | 3.0 | 11.0 | 0.00 | 0.07 | 0.00 | 72 | 1017.5 |
| 20260506180106 | 65 | 360 | 4.0 | 10.0 | 0.00 | 0.07 | 0.00 | 72 | 1017.6 |
| 20260506174558 | 64 | 360 | 2.0 | 10.0 | 0.00 | 0.08 | 0.00 | 73 | 1017.7 |
| 20260506173117 | 65 | 360 | 4.0 | 7.0 | 0.00 | 0.08 | 0.00 | 71 | 1017.8 |